Home > Weather > Ontario > Past weeks

Flag for USA Past Weather in Ontario, Oregon, USA — Yesterday and Last 2 Weeks

Now
85 °F

Sunny.


Feels Like: 82 °F
Forecast: 53 / 87 °F
Wind: No wind

Location: Ontario Municipal Airport

Current Time: Aug 25, 2016 at 6:00:04 PM

Latest Report: Aug 25, 2016 at 4:53 PM


Visibility: 10 mi

Pressure: 29.96 "Hg (27.82 "Hg at 656m altitude)

Humidity: 16%

Dew Point: 34 °F

Location of OntarioLocation

Past Weather in Ontario — Graph

°F

Ontario Temperature Yesterday

Maximum temperature yesterday: 87 °F (at 5:53 PM)
Minimum temperature yesterday: 59 °F (at 5:53 AM)
Average temperature yesterday: 74 °F

High & Low Weather Summary for the Past Weeks

 TemperatureHumidityPressure
High100 °F (Aug 15, 5:53 PM)80% (Aug 21, 6:53 AM)30.13 "Hg (Aug 21, 6:53 AM)
Low52 °F (Aug 11, 6:53 AM)10% (Aug 19, 4:53 PM)29.67 "Hg (Aug 21, 7:53 PM)
Average77 °F32%29.92 "Hg
* Reported Aug 10 4:53 PM — Aug 25 4:53 PM, Ontario, Weather by CustomWeather, © 2016

Note: Actual official high and low records may vary slightly from our data, if they occured in-between our weather recording intervals... More about our weather records

Advertising

Ontario Weather History for the Previous 24 Hours

Scroll right to see more
 ConditionsComfort  
Time TempWeatherWind HumidityBarometerVisibility
4:53 PM
Thu, Aug 25
85 °FSunny.No wind16%29.96 "Hg10 mi
3:53 PM85 °FSunny.No wind17%29.98 "Hg10 mi
2:53 PM82 °FSunny.6 mph20%30.01 "Hg10 mi
1:53 PM82 °FSunny.8 mph20%30.03 "Hg10 mi
12:53 PM80 °FSunny.6 mph23%30.06 "Hg10 mi
11:53 AM78 °FSunny.12 mph25%30.07 "Hg10 mi
10:53 AM74 °FSunny.No wind31%30.09 "Hg10 mi
9:53 AM69 °FSunny.3 mph33%30.10 "Hg10 mi
8:53 AM62 °FClear.No wind54%30.11 "Hg10 mi
7:53 AM59 °FClear.No wind56%30.09 "Hg6 mi
6:53 AM57 °FClear.5 mph60%30.07 "Hg10 mi
5:53 AM61 °FClear.No wind44%30.06 "Hg10 mi
4:53 AM63 °FClear.3 mph41%30.03 "Hg10 mi
3:53 AM68 °FClear.12 mph31%30.01 "Hg10 mi
2:53 AM70 °FClear.14 mph30%30.01 "Hg10 mi
1:53 AM66 °FClear.8 mph36%30.01 "Hg10 mi
12:53 AM69 °FClear.10 mph30%30.01 "Hg10 mi
11:53 PM
Wed, Aug 24
70 °FClear.12 mph30%30.01 "Hg10 mi
10:53 PM73 °FClear.13 mph27%30.02 "Hg10 mi
9:53 PM74 °FSunny.13 mph24%30.01 "Hg10 mi
8:53 PM75 °FSunny.10 mph22%30.01 "Hg10 mi
7:53 PM81 °FSunny.8 mph18%30.00 "Hg10 mi
6:53 PM86 °FSunny.10 mph12%30.00 "Hg10 mi
Weather by CustomWeather, © 2016

See weather overviewHow to use our weather pages